Location: Poughquag
(41.6090°N, 73.6820°W)
Time: 18:19:05
(UTC-05:00)

A-11 Canister half - Pass Details

Date: 10 December 2023
Orbit: 1526 x 1682 km, 47.3° (Epoch: 23 February)

Event Time Altitude Azimuth Distance (km) Brightness Sun altitude
Rises 19:15:04 0° 262° (W) 4,923 12.8 -31.0°
Reaches altitude 10° 19:18:17 10° 265° (W) 3,940 12.0 -31.6°
Maximum altitude 19:28:25 68° 349° (NNW) 1,784 9.2 -33.5°
Enters shadow 19:30:06 60° 34° (NE) 1,878 9.1 -33.8°
